Location: Cheching
(60.0667°N, 164.2167°W)
Time: 14:09:37
(UTC+00:00)

STRAND 1 - Pass Details

Date: 22 January 2021
Orbit: 768 x 780 km, 98.4° (Epoch: 04 March)

Event Time Altitude Azimuth Distance (km) Brightness Sun altitude
Rises 15:13:03 0° 115° (ESE) 3,246 ? -31.1°
Reaches altitude 10° 15:15:41 10° 102° (ESE) 2,324 ? -30.8°
Maximum altitude 15:19:48 25° 49° (NE) 1,528 ? -30.3°
Drops below altitude 10° 15:23:56 10° 355° (N) 2,340 ? -29.8°
Enters shadow 15:25:05 - 349° (NNW) 2,729 ? -29.7°
